Погода в Зе-Па

Канада     53°49′02″N   101°14′43″W
темп.,
°C
ветер,
м/с
пор.,
м/с
влажн.,
%
обл.,
%
осадки,
мм/ч
давл.,
гПа
погр.,
м
8 мая, сб
сб801:00+2в37660 0.0 1026189
04:00−1в38845 0.0 1027200
07:00−1в38865 0.0 1028278
10:00+4в345956 0.0 1027945
13:00+8всв45455 0.0 10261397
16:00+11всв34320 0.0 10251594
19:00+11всв34340 0.0 10241693
22:00+5в22540 0.0 102614
9 мая, вс
вс901:00+2вюв48660 0.0 1028188
04:000в38823 0.0 1029215
07:00−1вюв25855 0.0 1031194
10:00+4вюв22515 0.0 1030716
13:00+9св22375 0.0 10281296
16:00+11ссв22305 0.0 10271593
19:00+11св22315 0.0 10261407
22:00+5ю3348100 0.0 102738
10 мая, пн
пн1001:00+3ююз355344 0.0 102782
04:00+1ююз2357100 0.0 102747
07:00+2ююз2454100 0.0 102876
10:00+8ююз2340100 0.0 1027391
13:00+14ююз223082 0.0 10251216
16:00+16зсз222792 0.0 10231844
19:00+15вюв1133100 0.0 1022661
22:00+8ю4945100 0.0 1023161
11 мая, вт
вт1101:00+6ю3953100 0.0 1023147
04:00+6ююз2260100 0.0 102329
07:00+6юз225891 0.0 102336
10:00+15юз233762 0.0 1022409
13:00+19з342527 0.0 10212370
16:00+21ссз14229 0.0 10192898
19:00+20ссз322879 0.0 10181285
22:00+12ю354511 0.0 102059
12 мая, ср
ср1201:00+10ююз33515 0.0 101937
04:00+9ююз225126 0.0 101928
07:00+10ююз365580 0.0 1019108
10:00+17юз353671 0.0 1018445
13:00+21юз4524100 0.0 10163258
16:00+18з5641100 0.2 10171664
19:00+12ю4676100 1.4 1016159
22:00+12юз3372100 0.2 101643